[[{"header":{"parameterUnit":"m.s-1","parameterCategory":1,"la1":30.2991,"la2":30.254,"lo1":-89.0895,"lo2":-89.0444,"dy":0.0017,"dx":0.0017,"nx":28,"ny":28,"refTime":"2025-03-07T03:00:00:Z","depth":0,"parameterNumber":2,"parameterNumberName":"U-component_of_WINDS"},"data":[0,0,0,0,0,0,0,0,0,0,0,0,0,0,0,0,0,0,0,0,0,0,0,0,0,0,0,0,0,0,0,0,0,0,0,0,0,0,0,0,0,0,0,0,0,0,0,0,0,0,0,0,0,0,0,0,0,0,-0.7988,-0.7988,0,-0.796,-0.796,-0.7959,-0.7948,-0.7948,-0.7948,-0.7948,-0.7921,-0.792,-0.7919,0,0,0,0,0,0,0,0,0,0,0,0,0,-0.8033,-0.8032,-0.7988,-0.7988,-0.7987,-0.796,-0.796,-0.7959,-0.7948,-0.7948,-0.7948,-0.7948,-0.7921,-0.792,-0.7919,0,0,0,0,0,0,0,0,0,0,0,0,0,-0.801,-0.8032,-0.7988,-0.7979,-0.7977,-0.796,-0.796,-0.7959,-0.7948,-0.7948,-0.7948,-0.7948,-0.7921,-0.792,-0.7919,-0.7909,0,0,-0.7915,-0.7915,0,0,0,0,0,0,0,0,-0.8012,-0.8009,-0.798,-0.7979,-0.7978,-0.7958,-0.7965,-0.7943,-0.7948,-0.7959,-0.7948,-0.7949,-0.7933,-0.7931,-0.7925,-0.7908,-0.7907,-0.7915,-0.7914,-0.7914,-0.7913,0,0,0,0,0,0,0,-0.8013,-0.801,-0.7977,-0.798,-0.7978,-0.7976,-0.7973,-0.7961,-0.7946,-0.7958,-0.7957,-0.7954,-0.7932,-0.7926,-0.7925,-0.7906,-0.7915,-0.7914,-0.7913,-0.7913,-0.788,-0.788,0,0,0,0,0,0,-0.8016,-0.8011,-0.7978,-0.7976,-0.7995,-0.7975,-0.7972,-0.7964,-0.7946,-0.7943,-0.7954,-0.7954,-0.7928,-0.7926,-0.7924,-0.7911,-0.7914,-0.7913,-0.7912,-0.788,-0.788,-0.788,0,0,0,0,0,0,-0.8017,-0.8013,-0.7979,-0.7993,-0.7989,-0.7974,-0.7966,-0.7964,-0.7958,-0.7943,-0.794,-0.7951,-0.7928,-0.7925,-0.7913,-0.791,-0.7912,-0.7911,-0.788,-0.788,-0.788,-0.7887,0,0,0,0,0,0,-0.8019,-0.8014,-0.801,-0.7993,-0.7988,-0.7969,-0.7966,-0.7963,-0.7956,-0.7955,-0.7939,-0.7937,-0.7928,-0.7915,-0.7912,-0.7908,-0.791,-0.7881,-0.788,-0.788,-0.7886,-0.7887,-0.7887,0,0,0,0,0,-0.802,-0.8013,-0.801,-0.8006,-0.7983,-0.7969,-0.7966,-0.7956,-0.7955,-0.7951,-0.7942,-0.7937,-0.7911,-0.7914,-0.791,-0.7906,-0.7881,-0.788,-0.788,-0.7886,-0.7887,-0.7887,0,0,0,0,0,0,-0.803,-0.8011,-0.8007,-0.7994,-0.7983,-0.7967,-0.7961,-0.7956,-0.7945,-0.7945,-0.7934,-0.793,-0.7919,-0.7912,-0.7915,-0.7896,-0.7895,-0.7894,-0.7902,-0.7901,-0.7902,-0.7904,-0.7909,0,0,0,0,0,-0.8031,-0.802,-0.8004,-0.7995,-0.7989,-0.7976,-0.797,-0.7963,-0.7951,-0.7947,-0.7936,-0.7925,-0.7914,-0.7908,-0.7897,-0.7885,-0.7882,-0.7881,-0.7881,-0.7881,-0.7881,-0.7874,-0.7873,-0.7879,-0.7879,-0.7879,0,0,-0.8032,-0.802,-0.8014,-0.7996,-0.7987,-0.7977,-0.7972,-0.7962,-0.7954,-0.7945,-0.7933,-0.7925,-0.7912,-0.79,-0.7894,-0.7893,-0.7878,-0.7881,-0.7881,-0.788,-0.7873,-0.7873,-0.7872,-0.7879,-0.7879,-0.7879,0,0,-0.8029,-0.8019,-0.801,-0.8,-0.7986,-0.7977,-0.7975,-0.796,-0.7954,-0.7941,-0.7934,-0.7925,-0.7907,-0.7898,-0.7891,-0.7884,-0.788,-0.7881,-0.7881,-0.7875,-0.7875,-0.7874,-0.7872,-0.7871,-0.7881,-0.7881,-0.7881,0,-0.8033,-0.8016,-0.8006,-0.7995,-0.7988,-0.7979,-0.7969,-0.7961,-0.7944,-0.7939,-0.7938,-0.7915,-0.7906,-0.7891,-0.789,-0.7884,-0.7882,-0.7883,-0.7875,-0.7875,-0.7874,-0.7872,-0.7871,-0.7881,-0.7881,-0.7881,-0.7881,0,-0.8021,-0.801,-0.8005,-0.7988,-0.798,-0.797,-0.7958,-0.7951,-0.7945,-0.7937,-0.7924,-0.7912,-0.7899,-0.7895,-0.789,-0.788,-0.788,-0.7878,-0.7876,-0.7874,-0.7872,-0.7871,-0.7881,-0.7881,-0.7881,-0.7881,0,0,-0.8024,-0.8001,-0.7999,-0.7991,-0.7975,-0.7966,-0.7956,-0.7943,-0.7937,-0.7926,-0.7917,-0.7902,-0.7899,-0.7891,-0.7885,-0.7879,-0.7875,-0.7877,-0.7877,-0.7877,-0.7863,-0.7865,-0.7864,-0.7871,-0.7871,-0.7871,-0.7864,0,-0.8019,-0.7999,-0.7989,-0.7975,-0.7964,-0.7956,-0.7947,-0.7936,-0.7928,-0.7918,-0.791,-0.7899,-0.7897,-0.7892,-0.7886,-0.7876,-0.7872,-0.7877,-0.7863,-0.7863,-0.7866,-0.7863,-0.7865,-0.7859,-0.7863,-0.7863,-0.7863,0,-0.801,-0.7998,-0.7982,-0.7966,-0.7962,-0.7954,-0.7941,-0.7932,-0.7919,-0.7914,-0.7905,-0.7898,-0.7888,-0.7887,-0.7873,-0.7876,-0.787,-0.7865,-0.7864,-0.7863,-0.7863,-0.7861,-0.7857,-0.7856,-0.7861,-0.7861,-0.7862,0,-0.8013,-0.7993,-0.7981,-0.7975,-0.7956,-0.7951,-0.7943,-0.7931,-0.7923,-0.7912,-0.7907,-0.7895,-0.7888,-0.7879,-0.7869,-0.787,-0.7855,-0.7854,-0.7851,-0.7851,-0.7848,-0.7848,-0.7842,-0.7844,-0.7844,-0.7844,-0.7844,0,-0.8008,-0.7998,-0.7982,-0.7974,-0.7964,-0.7952,-0.7942,-0.7934,-0.7923,-0.7914,-0.7906,-0.7898,-0.7886,-0.7876,-0.7868,-0.7857,-0.7854,-0.785,-0.7848,-0.785,-0.7851,-0.7846,-0.7846,-0.7844,-0.7844,-0.7844,-0.7844,0,-0.8009,-0.7998,-0.7984,-0.7967,-0.7963,-0.7956,-0.7942,-0.7935,-0.7926,-0.7915,-0.7912,-0.7898,-0.7887,-0.7876,-0.7861,-0.7856,-0.7844,-0.7842,-0.7848,-0.7847,-0.7844,-0.7844,-0.7835,-0.7833,-0.7836,-0.7836,-0.7836,0,-0.8007,-0.7999,-0.7982,-0.7975,-0.7967,-0.7956,-0.7948,-0.7937,-0.7929,-0.7914,-0.7909,-0.7896,-0.7886,-0.7867,-0.7857,-0.7845,-0.7842,-0.784,-0.784,-0.7843,-0.7842,-0.7842,-0.7841,-0.784,-0.784,-0.784,-0.784,0,-0.8003,-0.7998,-0.7987,-0.7973,-0.7964,-0.7953,-0.7942,-0.7937,-0.7924,-0.7916,-0.7903,-0.7895,-0.7879,-0.7867,-0.7854,-0.7846,-0.7841,-0.7839,-0.7838,-0.784,-0.7844,-0.7842,-0.7848,-0.784,-0.784,-0.784,-0.784,-0.784,-0.8002,-0.7995,-0.7981,-0.7969,-0.7959,-0.7949,-0.7941,-0.7932,-0.7921,-0.7907,-0.7901,-0.7888,-0.7876,-0.7858,-0.785,-0.784,-0.7839,-0.7837,-0.7837,-0.7836,-0.7836,-0.7846,-0.7838,-0.7838,-0.7838,-0.7838,-0.7838,0,-0.7998,-0.7989,-0.7978,-0.7962,-0.7952,-0.7948,-0.7935,-0.7928,-0.7916,-0.7905,-0.7895,-0.788,-0.7869,-0.7857,-0.7844,-0.7839,-0.7836,-0.7836,-0.7836,-0.7834,-0.7838,-0.7841,-0.7838,-0.7838,-0.7838,-0.7838,-0.7838,-0.7838,-0.7995,-0.7982,-0.7975,-0.7958,-0.7949,-0.7936,-0.7929,-0.7919,-0.791,-0.7895,-0.7884,-0.7877,-0.7865,-0.7852,-0.7841,-0.7838,-0.7834,-0.7834,-0.783,-0.7834,-0.7834,-0.7834,-0.7836,-0.7833,-0.7833,-0.7827,-0.7827,-0.7827]},{"header":{"parameterUnit":"m.s-1","parameterCategory":1,"la1":30.2991,"la2":30.254,"lo1":-89.0895,"lo2":-89.0444,"dy":0.0017,"dx":0.0017,"nx":28,"ny":28,"refTime":"2025-03-07T03:00:00:Z","depth":0,"parameterNumber":3,"parameterNumberName":"V-component_of_WINDS"},"data":[0,0,0,0,0,0,0,0,0,0,0,0,0,0,0,0,0,0,0,0,0,0,0,0,0,0,0,0,0,0,0,0,0,0,0,0,0,0,0,0,0,0,0,0,0,0,0,0,0,0,0,0,0,0,0,0,0,0,4.1231,4.1231,0,4.1307,4.1308,4.1309,4.1295,4.1293,4.1292,4.1291,4.1368,4.1371,4.1375,0,0,0,0,0,0,0,0,0,0,0,0,0,4.1072,4.1075,4.123,4.1231,4.1232,4.1307,4.1308,4.1309,4.1295,4.1293,4.1292,4.129,4.1367,4.1371,4.1375,0,0,0,0,0,0,0,0,0,0,0,0,0,4.1144,4.1076,4.123,4.1234,4.1235,4.1307,4.1308,4.1309,4.1295,4.1293,4.1291,4.1289,4.1366,4.1371,4.1376,4.1447,0,0,4.1391,4.1393,0,0,0,0,0,0,0,0,4.114,4.115,4.1233,4.1234,4.1236,4.1289,4.1281,4.1356,4.1296,4.1273,4.1291,4.1288,4.1344,4.135,4.1369,4.1451,4.1454,4.1391,4.1394,4.1396,4.1398,0,0,0,0,0,0,0,4.1135,4.1146,4.1261,4.1234,4.1236,4.1233,4.124,4.1295,4.1319,4.1275,4.1274,4.1283,4.1344,4.1364,4.1371,4.1455,4.1391,4.1396,4.1399,4.1401,4.1604,4.1606,0,0,0,0,0,0,4.1129,4.1142,4.1258,4.1263,4.1182,4.1237,4.1246,4.1274,4.1318,4.1323,4.1285,4.1282,4.1357,4.1365,4.1373,4.1463,4.1396,4.1401,4.1404,4.1601,4.1604,4.1607,0,0,0,0,0,0,4.1125,4.1139,4.1255,4.1203,4.1217,4.1242,4.1274,4.1277,4.1297,4.1326,4.133,4.1301,4.1356,4.1366,4.143,4.1465,4.1403,4.1408,4.1598,4.1602,4.1605,4.1641,0,0,0,0,0,0,4.1121,4.1138,4.1165,4.1203,4.122,4.131,4.1276,4.128,4.1306,4.1303,4.1342,4.1347,4.1355,4.1423,4.1435,4.1471,4.1412,4.1595,4.16,4.1604,4.1637,4.1645,4.1653,0,0,0,0,0,4.1115,4.1171,4.1167,4.1181,4.1255,4.1312,4.1322,4.133,4.1309,4.1337,4.1356,4.1346,4.1459,4.1429,4.1443,4.1481,4.1593,4.1599,4.1604,4.1633,4.1644,4.1652,0,0,0,0,0,0,4.1135,4.1176,4.1172,4.1241,4.1274,4.131,4.1345,4.1341,4.1379,4.1375,4.1383,4.1392,4.1458,4.1475,4.1441,4.1555,4.1523,4.1532,4.1541,4.1551,4.1559,4.1554,4.1416,0,0,0,0,0,4.1148,4.1192,4.1225,4.1283,4.13,4.132,4.1345,4.1349,4.1383,4.1396,4.1419,4.1452,4.1496,4.1524,4.1565,4.1639,4.1649,4.1672,4.168,4.1686,4.1694,4.1737,4.1749,4.1624,4.1624,4.1624,0,0,4.1174,4.1202,4.1229,4.1288,4.1313,4.1359,4.1331,4.138,4.1414,4.1403,4.1466,4.1484,4.1521,4.1591,4.1623,4.1608,4.1731,4.1693,4.1698,4.1702,4.1744,4.1756,4.1767,4.1628,4.1627,4.1627,0,0,4.1246,4.1271,4.1324,4.1351,4.139,4.1404,4.1416,4.1454,4.1466,4.1529,4.1523,4.1563,4.1637,4.1665,4.1689,4.1775,4.1768,4.1788,4.183,4.1872,4.1882,4.1891,4.1924,4.1935,4.1795,4.1795,4.1795,0,4.1274,4.1343,4.1351,4.1402,4.1429,4.1423,4.1477,4.1502,4.1553,4.1572,4.1555,4.165,4.1674,4.1752,4.1773,4.1792,4.1808,4.1784,4.188,4.1889,4.1897,4.1929,4.1941,4.1797,4.1797,4.1797,4.1796,0,4.1376,4.1424,4.1462,4.1514,4.1545,4.1597,4.1614,4.1645,4.1647,4.1662,4.1728,4.1757,4.1806,4.1824,4.1825,4.1903,4.1893,4.1877,4.1846,4.1911,4.1941,4.1953,4.1801,4.18,4.1799,4.1798,0,0,4.1462,4.1519,4.1533,4.1558,4.1602,4.164,4.1692,4.1741,4.1768,4.1804,4.185,4.1913,4.1901,4.1928,4.1932,4.1969,4.2039,4.1949,4.1951,4.1967,4.2129,4.2142,4.2156,4.2034,4.2036,4.2038,4.2127,0,4.154,4.1634,4.1644,4.1728,4.1774,4.177,4.1816,4.1849,4.1865,4.1907,4.1925,4.1971,4.1949,4.1966,4.2002,4.2022,4.2072,4.2016,4.2078,4.208,4.2071,4.2171,4.2185,4.2267,4.2139,4.2141,4.2142,0,4.1643,4.1684,4.1773,4.1814,4.1834,4.1875,4.1923,4.1962,4.1999,4.2009,4.2041,4.2042,4.2097,4.2063,4.2141,4.2103,4.2129,4.2143,4.2147,4.2154,4.2116,4.2184,4.2293,4.2307,4.216,4.2159,4.2157,0,4.17,4.1777,4.1841,4.1862,4.1911,4.1941,4.1962,4.1998,4.2028,4.2068,4.2088,4.2134,4.216,4.2197,4.2211,4.2184,4.2289,4.2255,4.23,4.23,4.2323,4.2322,4.2441,4.2336,4.2336,4.2336,4.2336,0,4.1787,4.1842,4.1868,4.1908,4.197,4.1982,4.2044,4.2064,4.2096,4.2141,4.2139,4.218,4.2195,4.2239,4.225,4.2315,4.2326,4.2336,4.2339,4.2338,4.2337,4.2356,4.2351,4.2339,4.2338,4.2338,4.2337,0,4.1861,4.188,4.1951,4.1992,4.2004,4.2049,4.2084,4.2123,4.214,4.2196,4.221,4.2236,4.2288,4.2306,4.2368,4.2376,4.2452,4.2448,4.244,4.2441,4.2486,4.2482,4.2623,4.2643,4.2523,4.2524,4.2525,0,4.1916,4.1959,4.2006,4.2037,4.206,4.2108,4.2139,4.2153,4.2185,4.2233,4.2267,4.2319,4.2362,4.2446,4.2471,4.252,4.2519,4.2565,4.2526,4.2525,4.2523,4.2521,4.2527,4.2572,4.2574,4.2574,4.2575,0,4.2013,4.2021,4.2066,4.2116,4.2154,4.2193,4.2231,4.2256,4.2275,4.2312,4.2366,4.24,4.2465,4.2518,4.2568,4.2591,4.2588,4.2587,4.2601,4.2601,4.2596,4.2602,4.2462,4.2584,4.2583,4.2583,4.2582,4.2582,4.2081,4.212,4.2161,4.2212,4.2243,4.2279,4.2319,4.2342,4.2387,4.2443,4.2448,4.2507,4.2547,4.2614,4.2639,4.2687,4.2674,4.2692,4.2697,4.2703,4.2708,4.2587,4.2695,4.2695,4.2695,4.2695,4.2695,0,4.218,4.2207,4.2254,4.2308,4.2349,4.2343,4.2385,4.242,4.2473,4.251,4.2553,4.2617,4.2669,4.2699,4.2751,4.2783,4.2783,4.2797,4.2796,4.2802,4.2715,4.2699,4.2796,4.2796,4.2796,4.2796,4.2796,4.2796,4.2236,4.2304,4.2317,4.2401,4.2427,4.2486,4.2511,4.2545,4.2576,4.2648,4.2692,4.2711,4.2746,4.2801,4.2849,4.2857,4.2877,4.2892,4.2899,4.2818,4.2807,4.2797,4.2783,4.2896,4.2896,4.2982,4.2983,4.2984]}]]